Carlton, MN

3:10 AM CST on December 06, 2016 (GMT -0600)
Cloquet Carlton County

Weather History for KCOQ - February, 2013

Change the Weather History Date:

Sunday, February 10, 2013

  Actual Average Record
Temperature  
Mean Temperature 27 °F -  
Max Temperature 30 °F 22 °F 39 °F (1999)
Min Temperature 24 °F 6 °F -22 °F (2011)
Degree Days  
Heating Degree Days 38    
Moisture  
Dew Point 23 °F    
Average Humidity 86    
Maximum Humidity 93    
Minimum Humidity 86    
Precipitation  
Precipitation 0.02 in - - ()
Sea Level Pressure  
Sea Level Pressure 29.61 in    
Wind  
Wind Speed 9 mph (East)    
Max Wind Speed 23 mph    
Max Gust Speed 33 mph    
Visibility 2 miles    
Events Snow    
Averages and records for this station are not official NWS values.
T = Trace of Precipitation, MM = Missing Value Source: NWS Daily Summary

Daily Weather History Graph

Daily Weather History Graph

Search for Another Location

Airport or City:

Trip Planner

Search our weather history database for the weather conditions in past years. The results will help you decide how hot, cold, wet, or windy it might be!

Date:

Astronomy

Feb. 10, 2013 Rise Set
Actual Time 7:21 AM CST 5:27 PM CST
Civil Twilight 6:49 AM CST 5:59 PM CST
Nautical Twilight 6:14 AM CST 6:35 PM CST
Astronomical Twilight 5:39 AM CST 7:10 PM CST
Moon 7:06 AM CST (2/10) 6:25 PM CST (2/10)
Length of Visible Light 11h 09m
Length of Day
10h 06m
New Moon, 0% of the Moon is Illuminated
Feb 10
New Moon
Feb 17
First Quarter
Feb 25
Full
Mar 4
Last Quarter
Mar 11
New

Hourly Weather History & Observations

Time (CST) Temp. Windchill Dew Point Humidity Pressure Visibility Wind Dir Wind Speed Gust Speed Precip Events Conditions
12:15 AM 26.6 °F 22.6 °F 23.0 °F 86% 29.93 in 2.5 mi ESE 3.5 mph - N/A   Overcast
12:36 AM 26.6 °F 21.2 °F 23.0 °F 86% 29.92 in 1.8 mi ESE 4.6 mph - N/A   Overcast
12:56 AM 26.6 °F 20.0 °F 23.0 °F 86% 29.92 in 1.5 mi ESE 5.8 mph - N/A   Overcast
1:15 AM 24.8 °F 17.9 °F 23.0 °F 93% 29.92 in 1.5 mi ESE 5.8 mph - N/A   Overcast
1:36 AM 24.8 °F 19.1 °F 23.0 °F 93% 29.92 in 1.8 mi ESE 4.6 mph - N/A   Overcast
1:56 AM 24.8 °F 19.1 °F 23.0 °F 93% 29.92 in 1.8 mi SE 4.6 mph - N/A   Overcast
2:15 AM 24.8 °F 19.1 °F 21.2 °F 86% 29.92 in 1.5 mi ESE 4.6 mph - N/A   Overcast
2:36 AM 24.8 °F 20.5 °F 21.2 °F 86% 29.91 in 2.0 mi East 3.5 mph - N/A Snow Light Snow
2:56 AM 24.8 °F 20.5 °F 21.2 °F 86% 29.91 in 1.5 mi ESE 3.5 mph - N/A   Overcast
3:15 AM 24.8 °F 19.1 °F 21.2 °F 86% 29.89 in 1.5 mi ESE 4.6 mph - N/A   Overcast
3:36 AM 24.8 °F 20.5 °F 21.2 °F 86% 29.88 in 1.0 mi ESE 3.5 mph - N/A   Overcast
3:56 AM 24.8 °F 16.9 °F 21.2 °F 86% 29.87 in 1.0 mi East 6.9 mph - N/A   Overcast
4:15 AM 24.8 °F 19.1 °F 21.2 °F 86% 29.86 in 1.0 mi East 4.6 mph - N/A   Overcast
4:36 AM 24.8 °F 19.1 °F 21.2 °F 86% 29.85 in 1.0 mi East 4.6 mph - N/A   Overcast
4:56 AM 24.8 °F 19.1 °F 21.2 °F 86% 29.85 in 1.0 mi East 4.6 mph - N/A   Overcast
5:15 AM 24.8 °F 19.1 °F 21.2 °F 86% 29.85 in 1.0 mi East 4.6 mph - N/A   Overcast
5:36 AM 24.8 °F 16.9 °F 21.2 °F 86% 29.83 in 0.8 mi East 6.9 mph - N/A   Overcast
5:56 AM 24.8 °F 17.9 °F 21.2 °F 86% 29.83 in 0.8 mi East 5.8 mph - N/A   Overcast
6:15 AM 24.8 °F 16.9 °F 21.2 °F 86% 29.83 in 1.0 mi East 6.9 mph - N/A   Overcast
6:36 AM 24.8 °F 16.9 °F 21.2 °F 86% 29.81 in 1.0 mi East 6.9 mph - N/A   Overcast
6:55 AM 24.8 °F 16.9 °F 21.2 °F 86% 29.79 in 1.0 mi East 6.9 mph - N/A   Overcast
7:16 AM 24.8 °F 16.9 °F 21.2 °F 86% 29.77 in 1.0 mi ENE 6.9 mph - N/A   Overcast
7:36 AM 24.8 °F 14.6 °F 21.2 °F 86% 29.77 in 2.0 mi East 10.4 mph - N/A   Overcast
7:55 AM 24.8 °F 16.9 °F 21.2 °F 86% 29.76 in 3.0 mi East 6.9 mph - N/A   Overcast
8:16 AM 24.8 °F 16.9 °F 21.2 °F 86% 29.76 in 3.0 mi East 6.9 mph - N/A   Overcast
8:36 AM 24.8 °F 16.9 °F 21.2 °F 86% 29.74 in 3.0 mi ENE 6.9 mph - N/A   Overcast
8:56 AM 24.8 °F 14.6 °F 21.2 °F 86% 29.74 in 3.0 mi East 10.4 mph 16.1 mph N/A   Overcast
9:16 AM 24.8 °F 14.6 °F 21.2 °F 86% 29.73 in 3.0 mi East 10.4 mph - N/A   Overcast
9:36 AM 24.8 °F 13.4 °F 21.2 °F 86% 29.73 in 4.0 mi East 12.7 mph 18.4 mph N/A   Overcast
9:56 AM 24.8 °F 13.4 °F 21.2 °F 86% 29.71 in 4.0 mi East 12.7 mph 19.6 mph N/A   Overcast
10:16 AM 24.8 °F 13.4 °F 21.2 °F 86% 29.70 in 5.0 mi East 12.7 mph 23.0 mph N/A   Overcast
10:36 AM 24.8 °F 13.4 °F 21.2 °F 86% 29.67 in 5.0 mi ENE 12.7 mph 19.6 mph N/A   Overcast
10:56 AM 24.8 °F 11.1 °F 21.2 °F 86% 29.66 in 7.0 mi ENE 18.4 mph 31.1 mph N/A   Overcast
11:15 AM 24.8 °F 10.3 °F 21.2 °F 86% 29.64 in 5.0 mi ENE 20.7 mph 28.8 mph N/A   Overcast
11:36 AM 24.8 °F 10.7 °F 21.2 °F 86% 29.65 in 5.0 mi East 19.6 mph 28.8 mph N/A   Overcast
11:56 AM 24.8 °F 10.3 °F 21.2 °F 86% 29.61 in 7.0 mi ENE 20.7 mph 28.8 mph N/A   Overcast
12:15 PM 24.8 °F 11.9 °F 21.2 °F 86% 29.59 in 7.0 mi ENE 16.1 mph 32.2 mph N/A   Overcast
12:36 PM 24.8 °F 11.5 °F 21.2 °F 86% 29.57 in 1.2 mi ENE 17.3 mph 29.9 mph N/A Snow Light Snow
12:56 PM 24.8 °F 11.5 °F 21.2 °F 86% 29.54 in 0.8 mi ENE 17.3 mph 26.5 mph N/A Snow Light Snow
1:16 PM 26.6 °F 13.4 °F 23.0 °F 86% 29.50 in 0.5 mi ENE 18.4 mph 29.9 mph N/A Snow Snow
1:36 PM 26.6 °F 14.3 °F 23.0 °F 86% 29.50 in 0.5 mi ENE 16.1 mph 32.2 mph N/A Snow Light Snow
1:56 PM 26.6 °F 15.2 °F 23.0 °F 86% 29.49 in 0.5 mi ENE 13.8 mph 27.6 mph N/A Snow Light Snow
2:16 PM 26.6 °F 14.3 °F 23.0 °F 86% 29.46 in 0.5 mi ENE 16.1 mph 28.8 mph 0.01 in Snow Snow
2:35 PM 26.6 °F 14.3 °F 23.0 °F 86% 29.46 in 0.2 mi ENE 16.1 mph 24.2 mph 0.02 in Snow Heavy Snow
2:56 PM 26.6 °F 14.7 °F 23.0 °F 86% 29.46 in 0.5 mi East 15.0 mph 20.7 mph N/A Snow Snow
3:15 PM 26.6 °F 13.4 °F 24.8 °F 93% 29.46 in 0.2 mi ENE 18.4 mph 29.9 mph N/A Snow Heavy Snow
3:36 PM 26.6 °F 13.8 °F 24.8 °F 93% 29.45 in 0.2 mi ENE 17.3 mph 29.9 mph N/A Snow Snow
3:56 PM 28.4 °F 16.2 °F 24.8 °F 86% 29.43 in 0.2 mi ENE 17.3 mph 31.1 mph N/A Snow Snow
4:15 PM 28.4 °F 15.4 °F 24.8 °F 86% 29.42 in 0.2 mi ENE 19.6 mph 31.1 mph N/A Snow Heavy Snow
4:36 PM 28.4 °F 17.0 °F 24.8 °F 86% 29.42 in 0.5 mi East 15.0 mph 24.2 mph N/A Snow Snow
4:56 PM 28.4 °F 14.4 °F 24.8 °F 86% 29.41 in 0.8 mi ENE 23.0 mph 33.4 mph N/A Snow Light Snow
5:15 PM 28.4 °F 16.2 °F 24.8 °F 86% 29.41 in 1.2 mi ENE 17.3 mph 32.2 mph N/A Snow Light Snow
5:36 PM 28.4 °F 15.1 °F 24.8 °F 86% 29.40 in 2.0 mi East 20.7 mph 29.9 mph N/A Snow Light Snow
5:55 PM 30.2 °F 18.1 °F 26.6 °F 86% 29.39 in 2.5 mi ENE 18.4 mph 31.1 mph N/A Snow Light Snow
6:16 PM 30.2 °F 17.8 °F 26.6 °F 86% 29.39 in 3.0 mi ENE 19.6 mph 28.8 mph N/A Snow Light Snow
6:36 PM 30.2 °F 18.5 °F 26.6 °F 86% 29.38 in 2.5 mi ENE 17.3 mph 29.9 mph N/A Snow Light Snow
6:55 PM 30.2 °F 19.8 °F 26.6 °F 86% 29.38 in 4.0 mi East 13.8 mph 25.3 mph N/A Snow Light Snow
7:16 PM 30.2 °F 18.9 °F 26.6 °F 86% 29.37 in 3.0 mi ENE 16.1 mph 28.8 mph N/A Snow Light Snow
7:36 PM 30.2 °F 18.9 °F 26.6 °F 86% 29.37 in 3.0 mi ENE 16.1 mph 26.5 mph N/A Snow Light Snow
7:56 PM 30.2 °F 19.3 °F 26.6 °F 86% 29.36 in 3.0 mi ENE 15.0 mph 21.9 mph N/A Snow Light Snow
8:16 PM 30.2 °F 18.9 °F 26.6 °F 86% 29.35 in 3.0 mi ENE 16.1 mph 24.2 mph N/A Snow Light Snow
8:36 PM 30.2 °F 19.8 °F 26.6 °F 86% 29.35 in 3.0 mi ENE 13.8 mph 23.0 mph N/A Snow Light Snow
8:56 PM 30.2 °F 19.3 °F 26.6 °F 86% 29.35 in 5.0 mi ENE 15.0 mph 20.7 mph N/A Snow Light Snow
9:16 PM 30.2 °F 21.3 °F 26.6 °F 86% 29.35 in 4.0 mi ENE 10.4 mph 18.4 mph N/A Snow Light Snow
9:36 PM 30.2 °F 20.8 °F 26.6 °F 86% 29.34 in 7.0 mi NE 11.5 mph 18.4 mph N/A Snow Light Snow
9:56 PM 30.2 °F 21.9 °F 26.6 °F 86% 29.34 in 7.0 mi ENE 9.2 mph - N/A Snow Light Snow
10:16 PM 30.2 °F 21.3 °F 26.6 °F 86% 29.34 in 7.0 mi NE 10.4 mph 17.3 mph N/A Snow Light Snow
10:35 PM 30.2 °F 19.3 °F 26.6 °F 86% 29.33 in 4.0 mi NE 15.0 mph 18.4 mph N/A Snow Light Snow
10:56 PM 30.2 °F 20.8 °F 26.6 °F 86% 29.33 in 4.0 mi NE 11.5 mph - N/A Snow Light Snow
11:16 PM 30.2 °F 23.4 °F 26.6 °F 86% 29.33 in 4.0 mi NNE 6.9 mph - N/A Snow Light Snow
11:36 PM 30.2 °F 25.4 °F 26.6 °F 86% 29.32 in 4.0 mi North 4.6 mph - N/A Snow Light Snow
11:56 PM 30.2 °F 24.3 °F 26.6 °F 86% 29.32 in 5.0 mi North 5.8 mph - N/A   Overcast